RYR5VT GCLP-LPPR

Flight info

Callsign RYR5VT
Flight time N/A
Altitude 36000
Route VASTO DCT BAROK DCT ABLEG
Aircraft B738/M-SDE2E3FGHIRWXY/LB1

Departure

Time 2026-04-30 19:08
Airport Gran Canaria Airport (GCLP)

Arrival

Time N/A
Airport Francisco de Sá Carneiro Airport (LPPR)
Time Latitude Longitude Altitude Speed Heading
2026-04-30 18:40 27.93772 -15.38853 84 ft 0 kts 291°
2026-04-30 19:00 27.93750 -15.38789 82 ft 4 kts 308°
2026-04-30 19:00 27.93731 -15.38778 82 ft 4 kts 11°
2026-04-30 19:00 27.93703 -15.38788 85 ft 0 kts 21°
2026-04-30 19:03 27.93721 -15.38780 86 ft 6 kts 21°
2026-04-30 19:03 27.93844 -15.38726 85 ft 10 kts 21°
2026-04-30 19:04 27.94011 -15.38653 84 ft 16 kts 21°
2026-04-30 19:04 27.94095 -15.38450 67 ft 17 kts 22°
2026-04-30 19:05 27.94342 -15.38342 53 ft 21 kts 21°
2026-04-30 19:05 27.94513 -15.38264 45 ft 17 kts 22°
2026-04-30 19:06 27.94515 -15.38147 43 ft 11 kts 149°
2026-04-30 19:06 27.94443 -15.38113 42 ft 12 kts 173°
2026-04-30 19:06 27.94269 -15.38181 46 ft 33 kts 201°
2026-04-30 19:07 27.93060 -15.38713 62 ft 147 kts 200°
2026-04-30 19:07 27.91996 -15.39153 293 ft 169 kts 198°
2026-04-30 19:08 27.89825 -15.40072 1702 ft 157 kts 199°
2026-04-30 19:08 27.87458 -15.41103 2258 ft 204 kts 200°
2026-04-30 19:08 27.86088 -15.41714 2497 ft 220 kts 201°
2026-04-30 19:09 27.83113 -15.43070 3104 ft 249 kts 200°
2026-04-30 19:09 27.81370 -15.43558 3412 ft 266 kts 179°
2026-04-30 19:09 27.79589 -15.43013 4053 ft 270 kts 148°
2026-04-30 19:10 27.77739 -15.39478 5325 ft 276 kts 89°
2026-04-30 19:10 27.78434 -15.35191 6618 ft 283 kts 73°
2026-04-30 19:11 27.78978 -15.33044 7302 ft 286 kts 71°
2026-04-30 19:11 27.80396 -15.28801 8652 ft 292 kts 65°
2026-04-30 19:11 27.81304 -15.26729 9302 ft 297 kts 61°
2026-04-30 19:12 27.82350 -15.24707 9956 ft 301 kts 56°
2026-04-30 19:12 27.83544 -15.22726 10468 ft 313 kts 52°
2026-04-30 19:12 27.84945 -15.20727 10623 ft 335 kts 48°
2026-04-30 19:13 27.88430 -15.16811 11137 ft 367 kts 38°
2026-04-30 19:13 27.92648 -15.13449 12325 ft 374 kts 27°
2026-04-30 19:13 27.95011 -15.12214 12932 ft 375 kts 15°
2026-04-30 19:14 27.97520 -15.11388 13595 ft 377 kts 12°
2026-04-30 19:14 28.00061 -15.10622 14232 ft 380 kts 12°
2026-04-30 19:14 28.02630 -15.09859 14885 ft 383 kts 11°
2026-04-30 19:14 28.05216 -15.09085 15545 ft 386 kts 11°
2026-04-30 19:15 28.07819 -15.08298 16205 ft 389 kts 11°
2026-04-30 19:15 28.13088 -15.06680 17418 ft 396 kts 11°
2026-04-30 19:15 28.15756 -15.05852 17989 ft 399 kts 11°
2026-04-30 19:16 28.18444 -15.05016 18585 ft 402 kts 11°
2026-04-30 19:16 28.21151 -15.04171 19118 ft 406 kts 11°
2026-04-30 19:16 28.26612 -15.02466 20131 ft 414 kts 11°
2026-04-30 19:17 28.29397 -15.01596 20662 ft 417 kts 11°